Regional Weather Roundup
Issued by NWS

Home | Current Version | Previous Version | Graphics & Text | Print | Product List | Glossary Off
Versions: 1 2 3 4 5 6 7 8 9 10 11 12 13 14 15 16 17 18 19 20 21 22 23 24 25 26 27 28 29 30 31 32 33 34 35 36 37 38 39 40 41 42 43 44 45 46 47 48 49 50

000
ASUS43 KTOP 302208
RWRKS

WEATHER ROUNDUP FOR KANSAS
NATIONAL WEATHER SERVICE GOODLAND KS
500 PM CDT SUN APR 30 2017

NOTE:  "FAIR" INDICATES FEW OR NO CLOUDS BELOW 12,000 FEET WITH NO
SIGNIFICANT WEATHER AND/OR OBSTRUCTIONS TO VISIBILITY.

KSZ001>006-013>018-027>032-041>047-302300-
NORTHWEST KANSAS

CITY           SKY/WX    TMP DP  RH WIND       PRES   REMARKS
GOODLAND       CLOUDY    35  31  85 N14       29.71F WCI  26
HAYS           LGT RAIN  38  35  89 N29G43    29.56R WCI  26
HILL CITY      MIX PCPN  35  34  96 N23G33    29.65R FOG     WCI  23
RUSSELL        LGT RAIN  39  37  92 N28G39    29.52R FOG     WCI  28
$$

KSZ061>065-074>080-084>089-302300-
SOUTHWEST KANSAS

CITY           SKY/WX    TMP DP  RH WIND       PRES   REMARKS
DODGE CITY     CLOUDY    35  32  88 NW31G45   29.62R WCI  22
ELKHART          N/A    N/A N/A N/A MISG        N/A
GARDEN CITY    LGT SNOW N/A N/A N/A N36G48    29.69S
GREAT BEND     LGT RAIN  40  37  89 NW25G32   29.52R WCI  29
LIBERAL        LGT SNOW  34  33  96 NW30G37   29.74R FOG     WCI  20
PRATT          LGT RAIN  37  36  95 NW26G32   29.52R WCI  25
$$

KSZ066>073-081>083-090>101-302300-
SOUTHEAST KANSAS

CITY           SKY/WX    TMP DP  RH WIND       PRES   REMARKS
CHANUTE        CLOUDY    52  40  63 S20G25    29.48F
COFFEYVILLE    LGT RAIN  49  41  74 S22G32    29.51S
HUTCHINSON     LGT RAIN  47  40  76 SW7       29.43S
MEDICINE LODGE   N/A    N/A N/A N/A NW24G33   29.49R
NEWTON         CLOUDY    46  40  79 S9        29.43F
PARSONS        CLOUDY    51  41  68 S15G23    29.50F
WICHITA INTL   LGT RAIN  46  42  86 S9        29.43S
WICHITA JABRA  LGT RAIN  46  41  82 S6        29.43F
WICHITA MCCONL LGT RAIN  45  39  81 SW8       29.43S
WINFIELD       LGT RAIN  46  42  86 SW13      29.45S
$$

KSZ007>012-019>026-033>040-048>060-102>105-302300-
NORTHEAST KANSAS

CITY           SKY/WX    TMP DP  RH WIND       PRES   REMARKS
CONCORDIA      LGT RAIN  42  41  96 N15G25    29.46F
EMPORIA        LGT RAIN  45  43  93 S15G25    29.45R FOG
LAWRENCE       CLOUDY    52  43  71 S12       29.48R
MANHATTAN      LGT RAIN  51  46  83 SW8       29.42F
MARYSVILLE     RAIN      48  46  93 N13G18    29.43S
OLATHE IND     CLOUDY    52  41  66 S13G24    29.49R
OLATHE EXE     CLOUDY    50  42  74 SW15G24   29.49R
SALINA         RAIN      48  45  89 NW17      29.44S FOG
TOPEKA BILLARD PTSUNNY   54  44  69 S9        29.45F
TOPEKA FORBES  MOSUNNY   56  42  59 S18G25    29.45F
$$



USA.gov is the U.S. government's official web portal to all federal, state and local government web resources and services.